SCP
0 0 0 0 0 0 1 1 1 1 1 1 1 1 1 1 1 1 1 1 1 1 1 1 0 0 1 1 1 1 1 1 1 1 1 1 1 1 1 0 0 0 0
0 0 0 0 0 0 0 1 1 1 1 1 1 1 1 1 1 1 1 1 1 1 1 1 1 1 1 1 1 1 1 1 1 1 1 1 1 1 0 0 0 0 0
0 0 0 0 0 0 0 0 0 0 0 1 1 1 1 1 1 1 1 1 1 1 1 1 1 1 1 1 1 1 1 1 1 1 1 1 1 1 1 1 1 1 1
0 0 0 0 0 0 0 0 0 0 0 0 1 1 1 1 1 1 1 1 1 1 1 1 1 1 1 1 1 1 1 1 1 1 1 1 1 1 1 1 1 1 1
0 0 0 0 0 0 0 0 0 0 0 0 0 1 1 1 1 1 0 0 0 1 1 1 0 1 1 1 1 1 1 1 1 1 1 1 1 1 1 1 1 1 1
0 0 0 0 0 0 0 0 0 0 0 0 0 0 1 1 0 0 0 0 0 1 1 0 0 0 1 1 1 1 1 1 1 1 1 1 1 1 1 1 1 1 1
0 0 0 0 0 0 0 0 0 0 0 0 1 1 1 0 0 0 0 0 0 0 0 0 0 0 0 1 1 1 1 1 1 1 1 1 1 1 1 1 1 1 1
0 0 0 0 0 0 0 0 0 0 0 0 0 1 0 0 0 0 0 0 0 0 1 0 0 0 0 1 1 1 1 1 1 1 1 1 1 1 1 1 1 1 1
0 0 0 0 0 0 0 0 0 0 0 0 0 0 0 0 0 0 0 0 0 0 0 0 0 0 1 1 0 0 1 1 1 1 1 1 1 1 1 1 1 1 1
0 0 0 0 0 0 0 0 0 0 0 0 0 0 0 0 0 0 0 0 0 0 0 0 1 1 1 1 1 0 1 1 1 1 1 1 1 1 1 1 1 1 1
0 0 0 0 0 0 0 0 0 0 0 0 0 0 0 0 0 0 0 0 0 0 0 0 1 1 1 1 1 0 0 1 1 1 1 1 1 1 1 1 1 1 1
0 0 0 0 0 0 0 0 0 0 0 0 0 0 0 0 0 0 0 0 0 0 0 0 0 1 1 1 1 0 0 0 1 1 1 1 1 1 1 1 1 1 1
0 0 0 0 0 0 0 0 0 0 0 0 0 0 0 0 0 0 0 0 0 0 0 0 0 0 0 0 0 0 0 0 0 1 1 1 1 1 1 1 1 1 1
0 0 0 0 0 0 0 0 0 0 0 0 0 0 0 0 0 0 0 0 0 0 0 0 0 0 0 0 0 0 0 0 0 0 1 1 1 1 1 1 1 1 1
0 0 0 0 0 0 0 0 0 0 0 0 0 0 0 0 0 0 0 0 0 0 0 0 0 0 0 0 0 0 0 0 0 0 0 0 1 1 1 1 1 1 1
0 0 0 0 0 0 0 0 0 0 0 0 0 0 0 0 0 0 0 0 0 0 0 0 0 0 0 0 0 0 0 0 0 0 0 0 0 0 1 1 1 1 1
0 0 0 0 0 0 0 0 0 0 0 0 0 0 0 0 0 0 0 0 0 0 0 0 0 0 0 0 0 0 0 0 0 0 0 0 0 0 0 0 0 1 1
0 0 0 0 0 0 0 0 0 0 0 0 0 0 0 0 0 0 0 0 0 0 0 0 0 0 0 0 0 0 0 0 0 0 0 0 0 0 0 0 0 0 0
0 0 0 0 0 0 0 0 0 0 0 0 0 0 0 0 0 0 0 0 0 0 0 0 0 0 0 0 0 0 0 0 0 0 0 0 0 0 0 0 0 0 0
0 0 0 0 0 0 0 0 0 0 0 0 0 0 0 0 0 0 0 0 0 0 0 0 0 0 0 0 0 0 0 0 0 0 0 0 0 0 0 0 0 0 0
0 0 0 0 0 0 0 0 0 0 0 0 0 0 0 0 0 0 0 0 0 0 0 0 0 0 0 0 0 0 0 0 0 0 0 0 0 0 0 0 0 0 0
0 0 0 0 0 0 0 0 0 0 0 0 0 0 0 0 0 0 0 0 0 0 0 0 0 0 0 0 0 0 0 0 0 0 0 0 0 0 0 1 0 0 0
0 0 0 0 0 0 0 0 0 0 0 0 0 0 0 0 0 0 0 0 0 0 0 0 0 0 0 0 0 0 0 0 0 0 0 0 0 0 0 0 0 0 0
0 0 0 0 0 0 0 0 0 0 0 0 0 0 0 0 0 0 0 0 0 0 0 0 0 0 0 0 0 0 0 0 0 0 0 0 0 0 0 0 0 0 0
0 0 0 0 0 0 0 0 0 0 0 0 0 0 0 0 0 0 0 0 0 0 0 0 0 0 0 0 0 0 0 0 0 0 0 0 0 0 0 0 0 0 0
0 0 0 0 0 0 0 0 0 0 0 0 0 0 0 0 0 0 0 0 0 0 0 0 0 0 0 0 0 0 0 0 0 0 0 0 0 0 0 0 0 0 0
Wind_Speed
2 3 2 1 1 1 1 2 3 3 4 4 4 4 3 3 2 1 3 9 9 8 7 7 7 7 7 7 7 7 7 7 7 6 7 7 8 9 9 8 9 10 10
2 2 3 2 1 1 1 1 2 2 2 2 3 3 2 2 2 3 2 5 8 8 8 8 8 7 7 8 7 7 7 7 7 7 8 8 8 9 9 9 10 10 10
3 3 3 3 2 2 2 1 1 1 1 2 3 3 2 2 2 3 2 3 4 8 9 8 8 7 7 8 8 7 7 8 8 8 8 9 9 9 9 10 10 9 10
5 3 3 3 3 2 2 1 1 1 1 1 1 2 1 1 2 4 2 2 3 4 7 9 8 7 7 8 9 9 8 8 8 8 9 9 9 9 9 9 10 9 10
6 4 3 3 4 3 2 3 1 0 1 1 1 2 1 1 2 4 3 2 3 4 4 8 9 8 7 8 9 10 9 10 9 9 9 9 9 9 9 10 10 10 10
5 4 3 4 4 3 3 3 2 2 0 1 2 1 1 2 2 2 2 2 1 3 4 5 5 6 8 8 9 10 10 10 10 10 10 10 10 10 10 10 10 10 10
5 4 4 3 3 2 3 3 2 2 1 0 1 1 1 2 2 2 1 1 1 1 3 5 5 4 5 9 9 10 11 11 11 11 11 11 10 10 10 11 11 11 11
5 6 5 4 3 2 3 3 2 2 2 1 0 1 0 0 1 1 1 1 1 0 1 3 4 5 4 4 7 10 10 10 11 12 11 11 11 11 11 11 11 11 11
3 4 5 4 4 3 3 3 3 3 2 2 1 1 1 1 1 1 1 1 0 0 1 0 1 3 4 4 5 8 9 9 10 11 12 12 12 12 12 12 12 12 11
2 3 4 5 4 3 4 4 4 2 2 2 2 1 1 1 1 0 1 0 1 1 0 0 0 0 2 3 5 8 9 8 8 10 12 12 12 12 12 12 12 12 12
2 2 2 3 3 3 4 4 4 3 2 2 1 1 2 1 1 1 0 1 1 0 0 0 1 1 1 3 4 6 9 8 7 7 9 10 11 13 13 13 13 13 14
2 2 1 3 3 3 4 4 3 3 3 2 2 2 2 2 1 1 1 0 0 0 0 0 1 1 2 3 4 7 7 7 7 6 6 7 9 11 12 14 14 15 15
1 2 2 2 3 3 3 3 3 3 2 2 2 2 2 2 2 2 1 1 1 1 0 0 1 1 2 3 3 5 6 7 7 7 7 7 7 9 10 12 14 15 16
2 2 1 1 2 3 3 3 3 3 3 3 4 3 2 2 2 2 2 1 1 1 0 1 1 2 2 3 3 2 4 7 6 6 7 7 7 8 9 11 12 13 15
1 2 0 1 1 1 2 3 2 3 3 3 3 3 2 1 2 2 2 1 1 1 1 0 1 1 2 2 1 1 2 6 7 7 8 8 8 9 9 10 10 11 12
1 0 2 1 2 2 2 2 2 2 2 1 1 1 2 2 2 1 1 1 1 1 1 1 1 1 1 1 1 0 1 5 7 8 8 8 9 9 9 10 10 11 11
2 3 1 1 1 1 2 3 1 2 3 3 2 2 2 3 2 2 1 1 1 1 1 2 1 1 1 1 1 1 1 2 3 8 9 9 9 10 10 10 11 11 11
1 0 2 0 0 2 3 2 1 1 1 2 3 2 1 2 2 2 2 2 1 1 1 2 2 2 2 1 0 1 2 2 2 6 9 9 9 10 10 11 11 12 12
1 2 2 2 1 2 2 2 2 1 0 0 1 2 2 2 1 1 1 1 1 1 1 1 2 1 1 1 1 2 3 2 3 3 6 8 9 10 10 11 12 12 12
3 2 1 1 2 1 1 0 1 0 1 1 1 1 0 2 3 3 2 2 2 2 1 1 1 2 2 2 1 2 3 2 3 3 3 3 6 8 10 12 12 13 13
2 2 1 1 1 1 1 2 3 2 2 1 1 2 3 4 4 2 2 3 3 2 2 1 1 2 2 1 1 1 2 3 3 2 2 2 2 3 4 8 11 13 13
3 2 2 2 1 1 5 4 1 3 3 3 2 1 4 5 4 3 2 1 0 1 2 2 2 2 2 2 1 1 2 2 3 3 2 4 3 4 4 4 8 11 12
3 2 2 2 2 2 5 5 4 2 3 4 3 2 0 3 5 3 5 5 5 7 6 2 2 3 3 2 2 2 2 2 3 3 2 4 3 4 5 5 8 9 11
4 4 4 3 2 3 7 7 6 4 4 5 5 4 2 2 3 2 1 3 4 5 7 5 4 4 2 1 1 2 3 3 4 4 3 3 3 4 4 4 7 8 9
3 3 3 4 4 3 6 8 6 3 4 6 5 4 3 3 4 3 1 2 3 3 4 7 7 6 6 6 4 1 2 2 3 3 2 2 3 3 4 4 4 5 5
3 2 2 3 3 2 4 6 6 2 3 4 3 2 2 3 6 5 2 1 3 3 4 2 3 6 6 6 7 5 3 2 2 3 2 1 2 3 4 3 2 3 4
Wind_Direction
337 331 311 286 279 257 221 219 233 215 210 208 219 232 249 270 272 237 159 164 163 169 179 183 188 185 181 180 180 179 176 175 176 173 168 162 160 156 156 151 149 147 145
332 329 325 339 325 288 263 242 241 232 216 198 215 230 226 262 292 262 196 170 170 176 180 185 186 185 181 179 178 179 178 178 176 172 166 161 159 157 156 153 153 153 151
347 5 356 348 330 324 327 291 279 262 244 201 204 225 227 231 269 269 222 179 176 185 185 187 184 184 183 179 177 176 176 174 172 170 166 164 162 162 161 161 160 160 156
2 16 8 344 338 343 337 299 250 274 268 223 198 223 216 224 264 274 253 201 180 178 186 189 184 183 179 180 179 177 177 173 173 173 170 168 167 168 166 167 166 163 160
359 16 348 346 354 353 343 328 2 284 274 256 219 215 213 211 248 263 263 229 192 172 173 182 184 184 181 180 180 180 179 178 179 179 175 172 172 173 171 170 169 168 166
3 7 347 11 3 356 347 341 347 331 270 226 246 211 216 207 236 258 273 298 255 185 160 167 175 191 193 187 185 183 183 183 185 184 182 179 177 178 177 174 173 173 173
5 5 3 358 1 359 352 346 352 336 336 348 50 0 264 211 219 246 236 261 274 214 160 167 176 175 186 195 192 189 188 187 187 188 187 184 183 183 183 182 182 183 184
11 4 11 357 1 3 13 358 6 5 342 338 92 103 63 323 317 263 245 228 234 173 190 189 177 169 175 170 192 194 193 190 189 191 191 191 190 190 190 190 191 191 191
28 9 358 353 358 21 12 7 25 21 347 336 31 82 110 212 292 300 274 245 120 197 206 208 177 178 170 164 171 191 190 189 193 195 195 196 196 197 197 198 199 198 198
62 30 357 352 1 21 18 15 33 8 15 4 359 9 47 106 126 326 320 322 108 173 206 172 93 78 151 148 152 165 179 184 191 200 203 203 203 203 204 205 206 206 203
108 72 2 341 359 23 26 22 20 22 20 34 12 356 9 17 354 110 206 322 347 275 188 179 95 73 90 115 134 156 170 180 189 200 207 210 211 212 212 212 213 212 211
124 100 31 352 14 30 27 15 8 27 30 24 20 21 29 37 9 29 36 28 58 329 36 69 77 100 91 99 122 143 163 178 190 201 209 215 217 219 221 221 219 219 218
88 78 42 14 27 16 16 17 0 22 29 29 40 30 21 25 23 28 35 13 10 322 21 202 170 109 103 108 116 145 175 185 192 202 210 218 221 222 226 228 227 226 225
89 97 67 31 38 16 13 22 359 17 25 25 34 32 29 24 24 32 37 30 360 319 257 186 90 98 85 101 117 175 188 187 195 208 216 221 226 229 231 233 234 234 232
92 77 95 192 126 80 30 10 21 24 16 36 25 13 26 27 35 30 24 37 63 14 337 45 52 72 78 101 143 241 169 184 202 218 224 226 228 232 236 237 238 238 237
106 126 310 294 150 154 132 69 20 21 4 74 156 32 23 25 37 26 4 359 17 65 333 340 13 87 64 61 155 315 217 204 214 220 223 225 228 232 236 238 239 236 236
225 170 165 334 42 68 91 100 46 24 358 353 5 76 62 48 19 359 8 355 351 29 3 320 354 14 48 14 4 325 280 246 230 225 223 224 228 231 235 238 238 236 235
325 95 132 203 103 95 80 80 43 23 2 353 358 29 58 78 37 1 3 352 2 26 42 349 333 2 5 328 335 311 292 281 270 228 221 224 230 235 238 239 238 237 236
224 257 174 187 140 114 134 172 174 229 200 205 18 25 14 53 23 32 340 344 360 19 43 2 325 342 321 318 345 303 294 292 294 266 227 229 235 240 242 242 240 239 238
186 263 277 174 130 118 167 130 109 241 274 213 169 159 46 41 42 22 3 6 7 5 353 338 315 313 302 305 341 310 316 319 302 298 286 259 245 245 247 246 243 241 240
202 202 249 273 146 163 109 64 16 334 320 303 246 173 136 117 98 70 35 11 9 355 339 329 307 315 306 327 327 323 316 310 301 296 322 311 301 272 255 252 249 244 240
233 209 218 238 212 167 136 133 121 323 317 303 285 211 153 158 166 180 209 228 249 324 333 332 310 305 301 309 324 330 317 334 312 324 352 309 301 284 269 252 246 238 234
223 230 233 243 232 176 169 176 187 238 289 296 298 292 229 144 162 194 218 230 243 240 230 239 279 287 302 335 354 339 325 304 273 285 317 287 279 276 271 271 259 241 234
211 213 219 221 221 216 197 197 201 221 253 267 268 254 224 178 167 156 188 229 241 229 222 220 229 253 274 321 322 290 286 289 281 273 244 263 279 280 289 287 274 259 246
208 206 200 204 212 224 209 203 193 223 240 249 250 237 205 164 139 129 115 301 302 298 241 221 230 250 263 264 247 269 285 287 292 290 268 247 284 297 290 283 283 282 273
190 199 213 204 200 199 196 193 193 237 259 264 254 215 183 156 149 146 156 270 301 315 338 329 279 271 261 260 244 212 222 253 284 297 307 341 312 333 315 301 321 322 296